RH
48 44 41 44 46 43 40 37 33 20 12 5 3 2 2 3 4 5 6 6 6 7 8 8 8 10 11 10 8 6 5 3 4 6 6 6 7 12 41 86 94 81 58 43 47
47 43 40 39 37 34 31 30 24 15 7 4 2 2 2 3 4 6 6 7 7 8 8 9 10 11 13 13 10 7 6 5 7 6 6 6 6 8 26 81 98 100 77 56 45
44 42 39 36 36 30 30 29 23 17 11 8 6 4 3 3 4 6 7 8 9 9 10 12 13 14 14 16 14 10 7 8 8 8 7 7 6 6 11 61 96 95 94 69 47
40 37 38 41 35 34 30 26 24 21 18 15 11 6 4 4 6 8 10 12 12 13 14 15 16 16 18 19 18 13 9 8 9 8 7 6 8 6 8 24 82 97 83 81 56
42 35 28 25 21 19 17 14 12 12 9 6 5 5 6 6 9 11 12 15 16 17 17 17 18 19 19 21 23 18 12 9 10 9 8 7 7 9 6 12 50 70 97 98 67
38 34 28 23 18 12 8 7 6 5 6 7 9 10 10 10 18 19 18 17 18 19 20 20 21 22 21 23 25 22 14 11 11 10 10 8 8 9 7 8 19 54 97 97 83
38 27 14 7 5 5 6 8 9 10 10 11 12 12 11 13 18 18 19 21 20 24 25 26 26 26 24 26 28 26 18 13 13 15 10 11 7 5 12 8 10 46 87 98 96
37 23 11 7 5 4 4 4 5 6 7 12 15 15 16 18 17 19 18 16 17 20 23 30 31 27 25 30 31 30 23 13 22 19 13 17 8 15 25 14 10 12 36 94 96
19 14 9 6 5 5 5 4 5 8 10 14 21 22 22 19 14 12 13 13 14 13 17 21 24 24 28 32 34 34 27 15 31 28 19 21 19 36 42 23 15 12 15 52 97
11 9 9 8 10 15 18 20 20 18 17 15 13 12 10 10 10 9 9 11 12 12 13 13 15 20 21 33 34 33 23 17 28 41 38 34 32 49 48 45 30 19 13 16 91
17 16 15 19 21 16 12 13 13 13 12 12 10 10 8 7 6 6 6 6 8 10 9 12 15 9 21 35 37 34 24 16 26 41 39 44 64 58 72 41 26 24 21 13 41
20 16 10 10 15 14 14 13 11 10 10 7 5 5 5 6 5 5 5 5 7 9 13 13 8 13 24 33 36 31 21 16 24 43 68 56 75 67 69 57 44 24 17 15 17
12 11 9 9 12 16 12 9 8 7 9 9 6 6 6 6 6 6 6 6 6 9 10 13 12 18 21 30 34 32 25 14 22 47 74 69 71 68 58 48 48 47 24 21 16
7 8 8 10 12 12 9 7 7 7 7 6 6 5 6 6 6 7 7 7 7 8 14 14 13 16 22 24 30 30 25 17 17 45 78 85 89 67 73 69 59 43 54 27 15
5 6 7 11 12 10 9 8 7 7 6 6 5 5 5 6 6 8 10 9 10 14 20 15 19 20 20 22 28 28 27 23 27 51 47 61 100 46 61 75 55 42 38 28 20
7 7 9 11 10 9 7 5 5 6 5 7 6 5 5 5 6 10 16 17 18 21 22 23 27 31 25 28 32 31 33 28 35 57 56 33 67 24 38 43 47 49 41 32 22
8 12 11 8 6 5 4 5 6 6 8 7 7 6 5 5 6 9 16 17 20 24 22 25 25 32 34 33 33 31 34 31 43 60 44 34 43 21 38 49 33 54 46 41 40
10 9 7 6 5 5 6 7 6 7 6 6 7 7 8 12 9 15 18 18 20 20 20 23 28 34 49 34 33 36 51 58 55 57 52 44 32 24 39 55 42 38 54 58 43
10 8 5 5 7 6 5 6 8 12 18 15 16 18 12 43 71 76 98 57 24 22 20 22 21 25 43 64 86 70 69 68 80 75 60 41 47 42 48 54 53 35 58 52 42
5 4 6 5 4 5 8 12 20 22 28 70 85 70 54 23 48 100 100 98 100 90 57 50 42 41 53 44 38 46 60 84 78 76 55 42 61 58 54 53 66 52 33 62 71
5 5 4 4 6 11 27 34 31 31 31 42 94 100 100 80 100 58 100 100 100 93 83 81 84 58 76 47 42 34 45 63 73 76 56 54 59 57 69 70 70 68 44 30 61
4 3 5 7 23 52 66 69 60 57 59 55 65 100 100 100 99 98 100 100 100 100 100 65 78 59 38 50 71 89 83 99 97 78 60 73 50 60 70 60 58 67 55 32 30
3 4 10 27 59 88 96 96 96 77 73 73 88 92 95 100 100 100 93 100 100 100 100 100 100 100 66 52 47 67 81 86 87 100 99 86 54 73 91 92 92 78 64 27 23
5 7 23 51 86 97 87 86 96 100 88 100 100 100 99 83 99 100 91 94 100 100 100 100 100 100 99 100 77 99 91 87 97 84 64 86 68 54 100 100 81 92 72 44 32
7 21 68 84 98 100 91 79 93 100 100 100 85 100 97 88 80 88 100 71 100 99 100 100 100 100 100 100 96 76 99 98 92 70 68 84 76 96 89 95 100 96 86 62 97
15 45 100 99 100 100 100 88 73 96 100 99 99 87 96 100 88 58 87 97 76 100 100 100 100 100 100 100 97 62 88 98 73 84 74 54 71 69 94 100 100 99 92 99 100
22 83 100 100 99 86 100 100 76 82 74 95 96 91 92 88 78 60 44 68 82 86 95 94 100 100 100 100 99 71 70 68 83 77 72 63 67 72 85 100 98 90 96 99 98
Wind_Speed
35 36 37 36 36 36 36 30 23 23 25 23 23 24 24 23 24 27 29 27 27 28 31 34 34 35 36 35 34 36 38 38 36 33 34 36 51 62 62 62 60 54 52 49 43
36 36 38 38 37 35 31 26 26 26 26 27 29 30 29 28 28 29 31 30 30 32 35 36 37 36 36 37 36 37 36 37 36 37 34 37 44 61 65 64 64 61 56 54 47
37 37 37 37 33 31 28 26 27 29 31 32 34 33 33 33 33 30 37 34 37 37 38 38 38 38 38 39 38 39 37 37 36 37 36 36 46 55 68 72 69 65 61 58 53
37 35 33 30 28 26 27 30 32 35 37 40 40 40 40 40 39 34 43 37 42 39 42 42 41 40 40 39 41 40 39 39 38 39 39 38 46 53 67 74 77 72 68 61 58
32 31 30 30 30 30 33 34 36 40 42 43 44 46 47 48 37 42 46 44 44 45 47 45 46 45 42 41 40 41 41 42 40 40 42 41 44 59 61 77 78 79 69 62 58
32 33 34 35 36 38 39 40 43 46 47 49 51 52 53 54 47 47 50 52 50 51 51 51 50 48 47 43 43 43 43 43 43 42 42 43 44 57 59 71 84 84 67 66 62
36 38 41 42 42 44 45 47 49 51 53 57 59 60 60 57 57 56 55 53 56 57 54 55 53 50 49 47 45 44 46 45 43 42 43 43 39 44 61 64 81 84 86 68 67
43 45 46 49 50 52 53 55 58 59 62 63 66 69 68 61 60 57 58 57 56 55 55 55 54 54 51 48 48 48 48 47 37 41 43 43 38 46 54 61 65 82 79 75 74
50 51 53 56 58 60 63 65 67 67 69 68 66 68 65 59 58 58 56 54 55 56 55 56 57 55 53 53 53 48 46 46 44 38 40 42 40 40 46 56 58 71 87 84 74
56 57 60 63 66 66 67 68 67 67 63 58 58 57 55 52 52 50 51 51 52 53 55 57 59 56 57 58 46 46 49 49 44 32 41 42 39 35 42 47 48 58 76 73 80
59 61 63 65 67 69 72 72 67 65 61 57 57 54 55 55 54 53 54 53 53 52 53 55 57 57 56 47 47 51 51 50 44 38 41 41 35 33 36 47 47 50 62 79 79
64 65 66 69 73 74 73 73 71 73 68 58 59 61 56 58 53 51 51 53 54 52 53 56 54 55 52 49 51 50 49 50 43 38 37 37 34 31 40 41 43 44 56 62 68
67 72 74 75 77 77 78 76 76 76 78 68 70 64 60 57 55 51 52 53 53 55 57 59 54 52 54 51 54 52 49 46 42 38 37 35 35 36 37 42 43 45 45 50 60
70 76 79 81 81 79 79 81 82 85 86 83 82 73 61 56 56 49 49 50 53 54 58 60 57 57 54 54 52 51 42 42 41 44 46 40 43 42 36 40 43 45 48 47 59
75 80 85 85 85 87 88 92 94 94 93 83 81 75 69 58 54 51 49 50 50 47 49 50 51 55 52 49 46 43 42 43 44 46 46 51 53 41 42 44 42 40 44 45 46
82 86 88 90 93 95 96 99 99 96 101 79 74 73 69 59 52 45 44 44 41 43 44 43 42 42 47 51 48 43 45 45 46 47 53 50 55 54 49 44 33 38 41 41 46
85 89 92 96 97 99 101 102 99 98 87 81 73 67 61 49 48 47 45 43 39 40 43 41 40 37 37 49 50 47 46 47 50 52 49 44 50 51 39 36 37 35 43 43 43
90 92 97 102 105 106 107 103 94 78 74 66 53 47 46 42 44 48 46 43 40 41 43 40 39 35 26 35 40 41 43 44 45 47 42 39 53 40 33 40 38 38 42 46 49
93 98 103 106 109 107 97 78 65 54 52 48 42 44 44 45 43 42 33 39 38 38 40 41 43 35 33 27 32 35 42 33 41 41 41 42 35 22 26 36 37 39 39 44 47
98 103 107 107 97 83 70 57 46 40 39 41 38 35 42 49 50 36 23 34 31 34 35 38 39 34 34 36 37 37 35 40 42 42 42 44 26 19 17 30 30 41 40 40 46
104 107 98 88 73 60 50 43 37 34 34 36 39 35 36 41 36 45 36 25 28 33 41 37 36 35 31 31 30 36 38 43 43 40 38 43 38 23 25 26 28 38 44 47 49
104 95 80 68 56 46 39 33 28 23 26 30 33 39 34 30 36 41 34 42 21 24 33 41 44 44 37 32 31 33 35 32 38 39 38 32 24 34 33 33 27 38 46 49 52
92 82 66 54 43 36 29 27 25 24 24 23 23 29 49 37 36 35 39 45 39 27 28 33 33 32 33 34 38 38 39 40 36 37 36 37 28 25 29 34 26 30 42 50 49
80 71 54 44 32 32 31 25 22 22 22 20 17 21 24 37 44 36 36 57 48 31 27 36 41 38 31 34 38 38 41 41 42 43 41 42 29 26 24 34 31 24 34 46 48
70 56 43 37 31 24 32 33 30 29 26 25 22 24 25 22 32 52 40 48 53 49 39 37 41 46 38 36 40 39 39 40 44 39 49 35 27 29 32 27 24 26 36 39 38
60 46 25 33 19 26 30 27 28 28 29 26 30 25 23 25 30 40 51 45 50 53 52 43 41 45 46 44 41 41 37 41 40 44 47 42 39 33 34 36 31 27 39 37 39
51 34 33 33 33 32 31 35 34 34 31 31 30 28 25 30 29 29 38 52 53 51 56 57 49 45 43 40 39 41 38 35 39 36 38 39 32 36 40 42 33 29 34 39 46
Wind_Direction
307 307 305 302 299 300 300 293 282 282 283 284 282 279 279 283 286 287 285 281 282 284 286 288 291 293 292 286 284 278 276 273 269 270 273 255 238 230 223 228 232 232 231 229 226
304 304 302 300 299 299 297 290 288 291 291 289 285 284 281 281 281 280 283 281 284 284 286 287 287 288 288 287 282 276 275 272 271 266 266 252 240 228 223 223 230 230 229 231 225
305 303 301 299 298 295 289 282 283 287 288 286 285 283 281 278 279 281 282 283 282 281 281 282 284 284 284 282 280 278 273 270 271 268 271 262 244 232 222 220 227 228 228 229 228
303 304 300 295 293 288 282 280 283 284 285 287 285 286 285 284 280 278 274 279 276 278 279 278 281 282 279 280 278 278 272 268 269 269 271 267 246 235 226 221 223 226 227 228 228
304 302 297 296 295 292 288 287 285 283 283 283 283 283 282 282 279 275 280 276 274 276 275 276 279 279 278 277 275 275 271 268 268 269 270 266 253 235 229 223 223 228 219 221 222
299 296 294 292 290 289 288 287 285 284 283 282 281 280 280 283 281 276 273 274 275 272 273 274 274 275 274 274 271 270 270 269 268 271 271 273 258 243 231 228 223 226 221 215 218
295 293 292 292 290 286 285 283 283 283 283 284 283 282 283 287 283 277 274 272 269 269 268 269 270 269 269 268 267 269 267 266 267 277 274 272 269 260 233 232 226 224 222 213 215
294 293 293 293 291 290 290 288 287 286 286 286 285 284 284 284 282 281 275 272 270 268 267 265 264 263 265 267 263 263 264 266 274 273 270 270 269 252 236 235 233 230 228 225 214
297 296 296 296 295 294 292 290 288 287 286 285 284 284 286 284 280 278 276 275 270 269 266 264 263 262 260 260 258 263 267 268 268 271 267 267 268 247 238 237 235 230 227 227 215
299 300 299 297 296 295 294 294 293 292 290 288 287 289 288 283 279 277 276 273 270 268 266 266 263 262 260 257 263 269 264 261 263 261 259 261 257 246 236 238 237 236 231 226 226
301 301 300 300 299 297 295 294 290 289 290 291 293 290 290 284 278 275 275 275 274 270 268 263 262 265 262 261 259 260 260 262 262 256 252 257 251 235 230 236 236 235 234 228 226
304 302 300 300 300 298 297 295 295 293 291 295 294 293 290 284 282 282 277 273 270 268 265 262 262 260 260 256 254 257 258 260 263 256 254 251 250 240 227 230 236 235 232 229 225
305 304 300 297 296 298 299 300 301 300 298 294 295 293 290 286 285 279 273 270 267 263 262 261 261 256 253 249 250 252 255 259 262 255 248 245 247 242 234 232 234 230 226 225 226
303 302 300 298 297 300 303 303 304 303 300 302 300 299 293 288 284 279 275 270 265 263 260 258 256 252 248 248 250 252 258 259 258 253 243 242 254 240 235 235 234 232 225 223 228
297 296 298 301 302 304 303 304 303 301 298 302 299 297 293 287 283 274 269 265 263 260 256 259 256 253 250 249 252 251 249 251 250 248 249 234 244 234 233 232 233 236 233 221 226
299 299 301 303 303 302 301 300 298 297 298 298 295 291 288 284 278 267 266 264 258 255 255 254 254 253 247 239 238 237 237 243 246 245 247 242 245 251 232 229 232 228 225 219 221
302 303 305 304 303 300 298 297 299 296 297 292 289 287 284 277 266 259 257 257 253 254 250 256 255 255 249 241 236 237 241 243 243 243 256 250 249 262 239 225 224 223 223 218 211
306 308 305 303 301 299 299 299 298 298 294 291 281 273 265 260 257 255 253 249 249 246 251 252 249 250 250 241 238 237 239 241 245 250 261 255 253 264 249 222 220 220 220 216 209
308 306 304 302 302 303 304 304 301 295 288 281 272 260 243 242 242 247 257 251 243 243 245 250 246 247 244 237 231 225 231 237 243 249 253 249 260 253 239 228 222 220 220 217 214
309 307 306 307 308 308 307 303 300 293 283 271 271 263 250 238 236 228 224 256 243 238 241 245 248 241 238 239 235 236 234 228 232 239 243 244 248 243 230 225 227 224 221 217 213
312 310 311 311 311 309 305 303 303 295 285 271 257 256 259 249 240 235 208 215 230 241 235 237 252 236 231 233 237 236 233 228 230 236 240 247 249 240 242 239 234 220 218 219 215
312 313 315 315 313 310 309 309 306 301 293 282 269 248 244 241 251 234 216 215 190 191 230 234 237 243 237 238 235 230 222 230 238 232 233 245 241 237 249 246 241 225 220 218 215
317 317 317 313 313 312 314 310 309 310 305 293 288 269 253 242 242 245 217 219 231 237 204 201 231 242 248 237 233 232 225 225 220 222 236 243 242 235 244 247 244 242 225 219 218
319 318 316 313 313 314 314 317 304 304 304 304 295 291 284 260 243 225 219 223 237 216 203 201 199 209 220 234 232 228 224 221 220 222 223 234 228 228 236 238 235 226 228 221 220
319 316 317 319 317 318 315 315 309 298 299 308 299 299 297 290 258 239 224 219 226 229 212 202 202 209 208 220 225 224 223 219 225 227 228 225 228 226 233 229 222 227 217 218 211
318 314 305 300 296 304 308 307 313 304 303 301 300 297 292 294 282 258 241 229 226 229 231 218 208 210 212 226 228 221 221 221 225 222 231 231 226 234 235 215 215 223 214 218 202
316 308 303 296 296 295 296 309 312 306 299 297 300 301 292 284 283 275 258 246 232 227 229 220 222 217 206 218 231 226 218 227 229 229 232 236 238 233 233 229 221 211 227 216 207